Location: Chandrammap?lem
(16.9200°N, 81.0051°E)
Time: 03:40:27
(UTC+00:00)

Cosmos 2369 Rocket - Pass Details

Date: 29 May 2024
Orbit: 829 x 851 km, 71.0° (Epoch: 21 June)

Event Time Altitude Azimuth Distance (km) Brightness Sun altitude
Rises 15:32:44 0° 332° (NNW) 3,371 6.3 -31.2°
Reaches altitude 10° 15:35:16 10° 326° (NW) 2,439 5.4 -31.7°
Enters shadow 15:40:15 43° 264° (W) 1,163 3.1 -32.6°
